Weather History for Aberdeen, United Kingdom

Change the Weather History Date:

Saturday, January 5, 2013

  Actual Average Record
Temperature  
Mean Temperature 40 °F -  
Max Temperature 50 °F 42 °F 50 °F (2000)
Min Temperature 30 °F 31 °F 24 °F (2009)
Degree Days  
Heating Degree Days 25    
Moisture  
Dew Point 39 °F    
Average Humidity 87    
Maximum Humidity 100    
Minimum Humidity 62    
Precipitation  
Precipitation 0.01 in 0.10 in - ()
Sea Level Pressure  
Sea Level Pressure 30.27 in    
Wind  
Wind Speed 3 mph ()    
Max Wind Speed 16 mph    
Max Gust Speed -    
Visibility 7.3 miles    
Events      
Averages and records for this station are not official NWS values.
T = Trace of Precipitation, MM = Missing Value Source: Averaged Metar Reports

Daily Weather History Graph

Daily Weather History Graph

Search for Another Location

Airport:

Trip Planner

Search our weather history database for the weather conditions in past years. The results will help you decide how hot, cold, wet, or windy it might be!

Date:

Astronomy

Jan. 05, 2013 Rise Set
Actual Time 8:46 AM GMT 3:42 PM GMT
Civil Twilight 7:57 AM GMT 4:31 PM GMT
Nautical Twilight 7:07 AM GMT 5:21 PM GMT
Astronomical Twilight 6:20 AM GMT 6:08 PM GMT
Moon 12:47 AM GMT (1/5) 11:07 AM GMT (1/5)
Length of Visible Light 8h 33m
Length of Day
6h 56m
Waning Gibbous, 46% of the Moon is Illuminated
Jan 5
Waning Gibbous
Jan 11
New
Jan 18
First Quarter
Jan 27
Full
Feb 3
Last Quarter

Hourly Weather History & Observations

Time (GMT) Temp. Windchill Dew Point Humidity Pressure Visibility Wind Dir Wind Speed Gust Speed Precip Events Conditions
12:20 AM 33.8 °F - 33.8 °F 100% 30.39 in 5.6 mi Calm Calm - N/A   Unknown
12:50 AM 33.8 °F - 32.0 °F 93% 30.36 in - SSW 2.3 mph - N/A   Clear
1:20 AM 33.8 °F - 32.0 °F 93% 30.36 in 5.6 mi Calm Calm - N/A   Unknown
1:50 AM 33.8 °F 30.8 °F 32.0 °F 93% 30.36 in - WNW 3.5 mph - N/A   Clear
2:20 AM 32.0 °F - 32.0 °F 100% 30.36 in 6.2 mi Calm Calm - N/A   Unknown
2:50 AM 33 °F - 33 °F 100% 30.37 in 6 mi North 1.2 mph - -  
2:50 AM 32.0 °F - 32.0 °F 100% 30.36 in - Calm Calm - N/A   Clear
3:20 AM 30.2 °F 26.7 °F 30.2 °F 100% 30.36 in 6.2 mi NNW 3.5 mph - N/A   Unknown
3:50 AM 32.0 °F - 32.0 °F 100% 30.33 in 3.7 mi Calm Calm - N/A   Unknown
4:20 AM 32.0 °F - 30.2 °F 93% 30.33 in 1.4 mi Variable 2.3 mph - N/A   Mist
4:50 AM 30.2 °F 26.7 °F 30.2 °F 100% 30.33 in - NNW 3.5 mph - N/A   Clear
5:20 AM 30.2 °F - 30.2 °F 100% 30.33 in - Calm Calm - N/A   Clear
5:50 AM 33 °F - 33 °F 98% 30.34 in 12 mi SSE 1.2 mph - -  
5:50 AM 32.0 °F - 30.2 °F 93% 30.33 in - Calm Calm - N/A   Clear
6:20 AM 32.0 °F - 32.0 °F 100% 30.30 in - Calm Calm - N/A   Clear
6:50 AM 32.0 °F - 30.2 °F 93% 30.30 in - Calm Calm - N/A   Clear
7:20 AM 32.0 °F - 32.0 °F 100% 30.30 in - NNW 2.3 mph - N/A   Clear
7:50 AM 32.0 °F - 32.0 °F 100% 30.30 in - Calm Calm - N/A   Clear
8:20 AM 35.6 °F 30.7 °F 33.8 °F 93% 30.30 in - SSW 5.8 mph - N/A   Clear
8:50 AM 41.0 °F 38.0 °F 39.2 °F 93% 30.27 in - Variable 4.6 mph - N/A   Clear
9:20 AM 42.8 °F 40.1 °F 41.0 °F 93% 30.27 in - SSW 4.6 mph - N/A   Clear
9:50 AM 42.8 °F 38.0 °F 41.0 °F 93% 30.27 in - WSW 8.1 mph - N/A   Clear
10:20 AM 44.6 °F - 41.0 °F 87% 30.27 in - Calm Calm - N/A   Clear
10:50 AM 46.4 °F 45.2 °F 41.0 °F 81% 30.27 in - Variable 3.5 mph - N/A   Clear
11:20 AM 46.4 °F 43.5 °F 42.8 °F 87% 30.27 in - SW 5.8 mph - N/A   Clear
11:50 AM 48 °F - 42 °F 74% 30.27 in 28 mi South 2.3 mph - -   Scattered Clouds
11:50 AM 46.4 °F - 42.8 °F 87% 30.27 in - Variable 2.3 mph - N/A   Clear
12:20 PM 48.2 °F - 42.8 °F 82% 30.24 in - Variable 3.5 mph - N/A   Clear
12:50 PM 48.2 °F - 42.8 °F 82% 30.24 in 6.2 mi SW 8.1 mph - N/A   Partly Cloudy
1:20 PM 48.2 °F - 42.8 °F 82% 30.24 in - Variable 2.3 mph - N/A   Clear
1:50 PM 48.2 °F - 41.0 °F 76% 30.24 in - WSW 4.6 mph - N/A   Clear
2:20 PM 46.4 °F - 41.0 °F 81% 30.24 in - Calm Calm - N/A   Clear
2:50 PM 46 °F - 40 °F 73% 30.26 in 19 mi South 6.9 mph - -   Scattered Clouds
2:50 PM 46.4 °F 43.5 °F 41.0 °F 81% 30.24 in - SSE 5.8 mph - N/A   Clear
3:20 PM 46.4 °F 42.9 °F 41.0 °F 81% 30.24 in - SE 6.9 mph - N/A   Clear
3:50 PM 44.6 °F 40.7 °F 41.0 °F 87% 30.24 in - South 6.9 mph - N/A   Clear
4:20 PM 46.4 °F 41.5 °F 42.8 °F 87% 30.21 in - South 10.4 mph - N/A   Clear
4:50 PM 44.6 °F 39.7 °F 42.8 °F 93% 30.21 in - South 9.2 mph - N/A   Clear
5:20 PM 46.4 °F 42.9 °F 42.8 °F 87% 30.21 in - South 6.9 mph - N/A   Clear
5:50 PM 49 °F - 45 °F 79% 30.21 in 16 mi SSW 13.8 mph - -   Overcast
5:50 PM 50.0 °F - 44.6 °F 82% 30.21 in - SW 13.8 mph - N/A   Clear
6:20 PM 50.0 °F - 44.6 °F 82% 30.18 in 6.2 mi SSW 16.1 mph - N/A   Partly Cloudy
6:50 PM 50.0 °F - 44.6 °F 82% 30.21 in 6.2 mi SSW 9.2 mph - N/A   Mostly Cloudy
7:20 PM 50.0 °F - 44.6 °F 82% 30.18 in 6.2 mi SW 8.1 mph - N/A   Scattered Clouds
7:50 PM 50.0 °F - 44.6 °F 82% 30.18 in 6.2 mi SSW 8.1 mph - N/A   Partly Cloudy
8:20 PM 50.0 °F - 44.6 °F 82% 30.18 in 6.2 mi SW 12.7 mph - N/A   Partly Cloudy
8:50 PM 50 °F - 45 °F 75% 30.21 in 25 mi WSW 9.2 mph - -   Overcast
8:50 PM 50.0 °F - 44.6 °F 82% 30.18 in - WSW 6.9 mph - N/A   Clear
9:20 PM 50.0 °F - 44.6 °F 82% 30.21 in - WSW 5.8 mph - N/A   Clear
9:50 PM 50.0 °F - 42.8 °F 76% 30.21 in - WNW 6.9 mph - N/A   Clear
10:20 PM 50.0 °F - 41.0 °F 71% 30.24 in - WNW 8.1 mph - N/A   Clear
10:50 PM 48.2 °F - 41.0 °F 76% 30.24 in - Variable 3.5 mph - N/A   Clear
11:20 PM 50.0 °F - 41.0 °F 71% 30.24 in 6.2 mi West 10.4 mph - N/A   Unknown
11:50 PM 50 °F - 41 °F 62% 30.29 in 28 mi WNW 9.2 mph - -  
11:50 PM 48.2 °F - 41.0 °F 76% 30.27 in 6.2 mi West 8.1 mph - N/A   Unknown